Location: Newark
(7.6833°N, 5.0167°W)
Time: 08:35:22
(UTC+00:00)

Envisat - Visible Passes

Search period start: 20 January 2020 00:00
Search period end: 30 January 2020 00:00
Orbit: 764 x 766 km, 98.1° (Epoch: 20 January)

Date Brightness Start Highest point End Pass type
(mag) Time Alt. Az. Time Alt. Az. Time Alt. Az.
20 Jan 5.0 06:10:11 10° NE 06:14:44 34° E 06:19:17 10° SSE visible
20 Jan 3.5 18:44:56 10° S 18:49:58 67° WSW 18:55:01 10° NNW visible
21 Jan 6.4 05:36:14 10° E 05:38:01 12° E 05:39:47 10° ESE visible
21 Jan 6.4 19:50:51 10° WSW 19:52:08 11° W 19:53:26 10° W visible
22 Jan 5.0 19:10:56 10° SSW 19:15:25 32° W 19:19:53 10° NW visible
23 Jan 5.6 05:59:21 10° NE 06:03:27 25° E 06:07:34 10° SSE visible
24 Jan 6.1 19:37:57 10° SW 19:40:51 15° W 19:43:46 10° WNW visible
25 Jan 4.4 18:59:20 10° S 19:04:09 43° W 19:08:56 10° NNW visible
26 Jan 6.0 05:48:43 10° ENE 05:52:11 19° E 05:55:38 10° SE visible
27 Jan 5.8 19:25:49 10° SSW 19:29:35 21° W 19:33:20 10° NW visible
28 Jan 4.8 06:12:56 10° NNE 06:17:37 38° E 06:22:18 10° SSE visible
28 Jan 3.7 18:47:53 10° S 18:52:52 60° WSW 18:57:51 10° NNW visible
29 Jan 6.3 05:38:29 10° ENE 05:40:54 13° E 05:43:19 10° SE visible
